| time (UTC) | temp F | wind direction | speed knots | gust knots | rain 1hr in | rain 24hr in | rain mn in | humidity % | barometer mb |
| 20260504001917 | 54 | 253 | 7.8 | 11.3 | 0.00 | 0.00 | 0.00 | 59 | 1008.2 |
| 20260504001418 | 54 | 249 | 11.3 | 17.4 | 0.00 | 0.00 | 0.00 | 59 | 1008.2 |
| 20260504000916 | 54 | 260 | 13.9 | 17.4 | 0.00 | 0.00 | 0.00 | 59 | 1008.2 |
| 20260504000416 | 54 | 259 | 11.3 | 17.4 | 0.00 | 0.00 | 0.00 | 60 | 1008.2 |
| 20260503235917 | 54 | 262 | 8.7 | 17.4 | 0.00 | 0.00 | 0.00 | 61 | 1008.3 |
| 20260503235416 | 54 | 258 | 12.2 | 17.4 | 0.00 | 0.00 | 0.00 | 61 | 1008.3 |
| 20260503234915 | 54 | 261 | 8.7 | 10.4 | 0.00 | 0.00 | 0.00 | 61 | 1008.5 |
| 20260503234417 | 54 | 260 | 10.4 | 15.6 | 0.00 | 0.00 | 0.00 | 61 | 1008.4 |
| 20260503233916 | 54 | 269 | 10.4 | 13.9 | 0.00 | 0.00 | 0.00 | 61 | 1008.5 |
| 20260503233417 | 54 | 265 | 8.7 | 13.9 | 0.00 | 0.00 | 0.00 | 61 | 1008.5 |
| 20260503232915 | 54 | 260 | 8.7 | 11.3 | 0.00 | 0.00 | 0.00 | 61 | 1008.5 |
| 20260503232418 | 54 | 259 | 12.2 | 15.6 | 0.00 | 0.00 | 0.00 | 61 | 1008.6 |
| 20260503231917 | 54 | 253 | 7.0 | 8.7 | 0.00 | 0.00 | 0.00 | 62 | 1008.6 |
| 20260503231417 | 54 | 259 | 8.7 | 13.9 | 0.00 | 0.00 | 0.00 | 63 | 1008.6 |
| 20260503230916 | 53 | 260 | 8.7 | 12.2 | 0.00 | 0.00 | 0.00 | 65 | 1008.6 |
| 20260503230418 | 53 | 238 | 6.1 | 10.4 | 0.00 | 0.00 | 0.00 | 67 | 1008.6 |
| 20260503225917 | 53 | 264 | 6.1 | 7.0 | 0.00 | 0.00 | 0.00 | 67 | 1008.7 |
| 20260503225415 | 54 | 269 | 7.0 | 10.4 | 0.00 | 0.00 | 0.00 | 66 | 1008.7 |
| 20260503224916 | 54 | 266 | 11.3 | 15.6 | 0.00 | 0.00 | 0.00 | 66 | 1008.7 |
| 20260503224415 | 54 | 272 | 10.4 | 15.6 | 0.00 | 0.00 | 0.00 | 65 | 1008.8 |
| 20260503223915 | 54 | 267 | 7.0 | 13.0 | 0.00 | 0.00 | 0.00 | 65 | 1008.8 |
| 20260503223416 | 54 | 263 | 6.1 | 12.2 | 0.00 | 0.00 | 0.00 | 64 | 1008.8 |
| 20260503222916 | 54 | 259 | 11.3 | 14.8 | 0.00 | 0.00 | 0.00 | 63 | 1008.9 |
| 20260503222415 | 54 | 260 | 11.3 | 12.2 | 0.00 | 0.00 | 0.00 | 62 | 1008.9 |
| 20260503221918 | 54 | 268 | 10.4 | 12.2 | 0.00 | 0.00 | 0.00 | 63 | 1009.0 |
| 20260503221417 | 54 | 274 | 10.4 | 13.0 | 0.00 | 0.00 | 0.00 | 64 | 1008.9 |
| 20260503220916 | 53 | 267 | 7.8 | 13.9 | 0.00 | 0.00 | 0.00 | 66 | 1008.9 |
| 20260503220417 | 53 | 268 | 10.4 | 13.0 | 0.00 | 0.00 | 0.00 | 67 | 1008.9 |
| 20260503215918 | 53 | 259 | 10.4 | 13.9 | 0.00 | 0.00 | 0.00 | 67 | 1009.0 |
| 20260503215417 | 53 | 261 | 10.4 | 17.4 | 0.00 | 0.00 | 0.00 | 67 | 1009.0 |
| 20260503214918 | 52 | 258 | 12.2 | 17.4 | 0.00 | 0.00 | 0.00 | 67 | 1009.0 |
| 20260503214417 | 52 | 260 | 7.8 | 13.9 | 0.00 | 0.00 | 0.00 | 68 | 1008.9 |
| 20260503213917 | 52 | 252 | 12.2 | 14.8 | 0.00 | 0.00 | 0.00 | 67 | 1008.8 |
| 20260503213416 | 52 | 254 | 11.3 | 13.0 | 0.00 | 0.00 | 0.00 | 68 | 1008.7 |
| 20260503212919 | 52 | 252 | 10.4 | 10.4 | 0.00 | 0.00 | 0.00 | 67 | 1008.6 |
| 20260503212417 | 53 | 250 | 10.4 | 14.8 | 0.00 | 0.00 | 0.00 | 67 | 1008.6 |
| 20260503211916 | 53 | 248 | 10.4 | 15.6 | 0.00 | 0.00 | 0.00 | 67 | 1008.5 |
| 20260503211418 | 53 | 255 | 11.3 | 14.8 | 0.00 | 0.00 | 0.00 | 67 | 1008.5 |
| 20260503210917 | 53 | 266 | 11.3 | 18.2 | 0.00 | 0.00 | 0.00 | 67 | 1008.5 |
| 20260503210416 | 52 | 253 | 11.3 | 13.0 | 0.00 | 0.00 | 0.00 | 67 | 1008.6 |
| 20260503205918 | 52 | 252 | 13.0 | 17.4 | 0.00 | 0.00 | 0.00 | 66 | 1008.5 |
| 20260503205417 | 52 | 264 | 12.2 | 17.4 | 0.00 | 0.00 | 0.00 | 67 | 1008.6 |
| 20260503204916 | 52 | 256 | 12.2 | 17.4 | 0.00 | 0.00 | 0.00 | 67 | 1008.7 |
| 20260503204418 | 51 | 251 | 12.2 | 19.1 | 0.00 | 0.00 | 0.00 | 67 | 1008.7 |
| 20260503203917 | 51 | 251 | 12.2 | 21.7 | 0.00 | 0.00 | 0.00 | 67 | 1008.8 |
| 20260503203416 | 51 | 262 | 7.8 | 14.8 | 0.00 | 0.00 | 0.00 | 68 | 1008.8 |
| 20260503202917 | 51 | 256 | 8.7 | 17.4 | 0.00 | 0.00 | 0.00 | 67 | 1008.9 |
| 20260503202418 | 51 | 258 | 12.2 | 17.4 | 0.00 | 0.00 | 0.00 | 67 | 1008.9 |
| 20260503201917 | 52 | 247 | 8.7 | 15.6 | 0.00 | 0.00 | 0.00 | 67 | 1008.9 |
| 20260503201417 | 52 | 247 | 12.2 | 17.4 | 0.00 | 0.00 | 0.00 | 67 | 1009.1 |
| 20260503200918 | 52 | 251 | 7.8 | 11.3 | 0.00 | 0.00 | 0.00 | 66 | 1009.1 |
| 20260503200417 | 52 | 245 | 13.9 | 21.7 | 0.00 | 0.00 | 0.00 | 66 | 1009.1 |
| 20260503195916 | 52 | 236 | 13.0 | 19.1 | 0.00 | 0.00 | 0.00 | 66 | 1009.2 |
| 20260503195418 | 52 | 247 | 12.2 | 17.4 | 0.00 | 0.00 | 0.00 | 65 | 1009.2 |
| 20260503194917 | 53 | 239 | 10.4 | 13.9 | 0.00 | 0.00 | 0.00 | 65 | 1009.2 |
| 20260503193917 | 53 | 242 | 8.7 | 12.2 | 0.00 | 0.00 | 0.00 | 66 | 1009.4 |
| 20260503193419 | 53 | 259 | 13.9 | 19.1 | 0.00 | 0.00 | 0.00 | 63 | 1009.6 |
| 20260503192917 | 53 | 263 | 12.2 | 19.1 | 0.00 | 0.00 | 0.00 | 65 | 1009.6 |
| 20260503192417 | 53 | 250 | 10.4 | 13.0 | 0.00 | 0.00 | 0.00 | 64 | 1009.7 |
| 20260503191918 | 54 | 252 | 13.9 | 21.7 | 0.00 | 0.00 | 0.00 | 63 | 1009.7 |
| 20260503191417 | 53 | 261 | 13.9 | 20.9 | 0.00 | 0.00 | 0.00 | 62 | 1009.9 |
| 20260503190916 | 53 | 245 | 11.3 | 14.8 | 0.00 | 0.00 | 0.00 | 64 | 1009.9 |
| 20260503190417 | 53 | 240 | 14.8 | 20.0 | 0.00 | 0.00 | 0.00 | 63 | 1010.0 |
| 20260503185917 | 53 | 241 | 12.2 | 19.1 | 0.00 | 0.00 | 0.00 | 63 | 1010.0 |
| 20260503185418 | 53 | 238 | 12.2 | 20.0 | 0.00 | 0.00 | 0.00 | 62 | 1010.0 |
| 20260503184917 | 54 | 240 | 12.2 | 17.4 | 0.00 | 0.00 | 0.00 | 62 | 1010.2 |
| 20260503184416 | 54 | 234 | 12.2 | 22.6 | 0.00 | 0.00 | 0.00 | 63 | 1010.2 |
| 20260503183917 | 53 | 253 | 10.4 | 17.4 | 0.00 | 0.00 | 0.00 | 63 | 1010.3 |
| 20260503183416 | 52 | 248 | 14.8 | 21.7 | 0.00 | 0.00 | 0.00 | 63 | 1010.4 |
| 20260503182917 | 52 | 252 | 8.7 | 13.9 | 0.00 | 0.00 | 0.00 | 62 | 1010.4 |
| 20260503182417 | 52 | 239 | 11.3 | 20.9 | 0.00 | 0.00 | 0.00 | 61 | 1010.5 |
| 20260503181916 | 52 | 247 | 11.3 | 24.3 | 0.00 | 0.00 | 0.00 | 61 | 1010.6 |
| 20260503181418 | 52 | 248 | 13.9 | 19.1 | 0.00 | 0.00 | 0.00 | 59 | 1010.6 |
| 20260503180917 | 52 | 251 | 12.2 | 15.6 | 0.00 | 0.00 | 0.00 | 59 | 1010.7 |
| 20260503180416 | 52 | 240 | 13.9 | 18.2 | 0.00 | 0.00 | 0.00 | 57 | 1010.8 |
| 20260503175918 | 53 | 231 | 10.4 | 19.1 | 0.00 | 0.00 | 0.00 | 56 | 1010.9 |
| 20260503175417 | 53 | 245 | 12.2 | 19.1 | 0.00 | 0.00 | 0.00 | 56 | 1010.9 |
| 20260503174916 | 53 | 242 | 13.0 | 17.4 | 0.00 | 0.00 | 0.00 | 55 | 1011.0 |
| 20260503174418 | 53 | 243 | 13.9 | 20.9 | 0.00 | 0.00 | 0.00 | 57 | 1011.1 |
| 20260503173917 | 52 | 240 | 10.4 | 17.4 | 0.00 | 0.00 | 0.00 | 59 | 1011.2 |
| 20260503173416 | 51 | 252 | 8.7 | 13.9 | 0.00 | 0.00 | 0.00 | 61 | 1011.3 |
| 20260503172918 | 51 | 254 | 13.0 | 21.7 | 0.00 | 0.00 | 0.00 | 61 | 1011.4 |
| 20260503171916 | 51 | 237 | 10.4 | 17.4 | 0.00 | 0.00 | 0.00 | 63 | 1011.5 |
| 20260503171418 | 51 | 240 | 10.4 | 14.8 | 0.00 | 0.00 | 0.00 | 66 | 1011.7 |
| 20260503170917 | 50 | 228 | 7.8 | 13.9 | 0.00 | 0.00 | 0.00 | 67 | 1011.8 |
| 20260503170416 | 50 | 250 | 8.7 | 11.3 | 0.00 | 0.00 | 0.00 | 67 | 1011.8 |
| 20260503150917 | 50 | 246 | 6.1 | 10.4 | 0.00 | 0.00 | 0.00 | 64 | 1013.0 |
| 20260503150418 | 50 | 241 | 7.0 | 12.2 | 0.00 | 0.00 | 0.00 | 55 | 1012.9 |
| 20260503131416 | 46 | 247 | 7.8 | 11.3 | 0.00 | 0.00 | 0.00 | 76 | 1013.0 |
| 20260503130918 | 46 | 248 | 7.0 | 10.4 | 0.00 | 0.00 | 0.00 | 76 | 1013.1 |
| 20260503130417 | 46 | 243 | 7.0 | 13.0 | 0.00 | 0.00 | 0.00 | 76 | 1013.1 |
| 20260503110418 | 37 | 200 | 2.6 | 2.6 | 0.00 | 0.00 | 0.00 | 80 | 1013.2 |
| 20260503090417 | 35 | 262 | 1.7 | 1.7 | 0.00 | 0.00 | 0.00 | 76 | 1013.5 |
| 20260503081416 | 35 | 275 | 2.6 | 2.6 | 0.00 | 0.00 | 0.00 | 77 | 1013.8 |
| 20260503080917 | 35 | 260 | 1.7 | 2.6 | 0.00 | 0.00 | 0.00 | 78 | 1013.8 |
| 20260503080417 | 35 | 277 | 2.6 | 4.3 | 0.00 | 0.00 | 0.00 | 78 | 1013.8 |
| 20260503072916 | 36 | 266 | 2.6 | 2.6 | 0.00 | 0.00 | 0.00 | 80 | 1013.7 |
| 20260503071916 | 36 | 267 | 1.7 | 2.6 | 0.00 | 0.00 | 0.00 | 80 | 1013.7 |
| 20260503071418 | 36 | 271 | 2.6 | 2.6 | 0.00 | 0.00 | 0.00 | 81 | 1013.7 |
| 20260503070917 | 36 | 266 | 2.6 | 2.6 | 0.00 | 0.00 | 0.00 | 80 | 1013.7 |
| 20260503054917 | 37 | 261 | 1.7 | 2.6 | 0.00 | 0.00 | 0.00 | 79 | 1014.0 |
| 20260503054417 | 37 | 260 | 2.6 | 2.6 | 0.00 | 0.00 | 0.00 | 78 | 1014.0 |
| 20260503053918 | 37 | 250 | 2.6 | 2.6 | 0.00 | 0.00 | 0.00 | 78 | 1014.0 |
| 20260503053417 | 37 | 255 | 2.6 | 4.3 | 0.00 | 0.00 | 0.00 | 78 | 1014.0 |
| 20260503052916 | 37 | 250 | 2.6 | 4.3 | 0.00 | 0.00 | 0.00 | 78 | 1014.0 |
| 20260503052417 | 37 | 251 | 2.6 | 2.6 | 0.00 | 0.00 | 0.00 | 77 | 1014.1 |
| 20260503051918 | 37 | 248 | 1.7 | 2.6 | 0.00 | 0.00 | 0.00 | 77 | 1014.1 |
| 20260503051417 | 37 | 253 | 2.6 | 4.3 | 0.00 | 0.00 | 0.00 | 77 | 1014.1 |
| 20260503050918 | 37 | 251 | 2.6 | 2.6 | 0.00 | 0.00 | 0.00 | 77 | 1014.1 |
| 20260503050417 | 37 | 249 | 2.6 | 4.3 | 0.00 | 0.00 | 0.00 | 77 | 1014.2 |
| 20260503045916 | 37 | 249 | 2.6 | 4.3 | 0.00 | 0.00 | 0.00 | 77 | 1014.2 |
| 20260503045417 | 38 | 248 | 2.6 | 4.3 | 0.00 | 0.00 | 0.00 | 77 | 1014.2 |
| 20260503044417 | 38 | 247 | 2.6 | 2.6 | 0.00 | 0.00 | 0.00 | 78 | 1014.3 |
| 20260503043916 | 38 | 246 | 1.7 | 4.3 | 0.00 | 0.00 | 0.00 | 78 | 1014.3 |
| 20260503043417 | 38 | 259 | 2.6 | 2.6 | 0.00 | 0.00 | 0.00 | 78 | 1014.3 |
| 20260503042916 | 38 | 243 | 1.7 | 2.6 | 0.00 | 0.00 | 0.00 | 78 | 1014.3 |
| 20260503042417 | 38 | 251 | 2.6 | 4.3 | 0.00 | 0.00 | 0.00 | 78 | 1014.4 |
| 20260503041917 | 38 | 256 | 1.7 | 2.6 | 0.00 | 0.00 | 0.00 | 78 | 1014.4 |
| 20260503041417 | 38 | 257 | 2.6 | 2.6 | 0.00 | 0.00 | 0.00 | 78 | 1014.5 |
| 20260503040918 | 38 | 257 | 2.6 | 2.6 | 0.00 | 0.00 | 0.00 | 78 | 1014.5 |
| 20260503040417 | 38 | 253 | 2.6 | 4.3 | 0.00 | 0.00 | 0.00 | 78 | 1014.5 |
| 20260503035918 | 39 | 257 | 2.6 | 4.3 | 0.00 | 0.00 | 0.00 | 79 | 1014.5 |
| 20260503035417 | 39 | 255 | 1.7 | 4.3 | 0.00 | 0.00 | 0.00 | 79 | 1014.5 |
| 20260503034916 | 39 | 241 | 2.6 | 4.3 | 0.00 | 0.00 | 0.00 | 79 | 1014.5 |
| 20260503034417 | 39 | 247 | 2.6 | 4.3 | 0.00 | 0.00 | 0.00 | 78 | 1014.5 |
| 20260503033917 | 39 | 242 | 2.6 | 4.3 | 0.00 | 0.00 | 0.00 | 78 | 1014.5 |
| 20260503032918 | 39 | 243 | 2.6 | 2.6 | 0.00 | 0.00 | 0.00 | 78 | 1014.5 |
| 20260503032417 | 39 | 224 | 1.7 | 4.3 | 0.00 | 0.00 | 0.00 | 79 | 1014.6 |
| 20260503031918 | 39 | 222 | 1.7 | 4.3 | 0.00 | 0.00 | 0.00 | 79 | 1014.6 |
| 20260503031417 | 40 | 225 | 1.7 | 2.6 | 0.00 | 0.00 | 0.00 | 79 | 1014.6 |
| 20260503030918 | 40 | 230 | 1.7 | 2.6 | 0.00 | 0.00 | 0.00 | 79 | 1014.5 |
| 20260503030417 | 40 | 214 | 2.6 | 2.6 | 0.00 | 0.00 | 0.00 | 79 | 1014.6 |
| 20260503025916 | 40 | 228 | 1.7 | 1.7 | 0.00 | 0.00 | 0.00 | 79 | 1014.6 |
| 20260503025417 | 40 | 218 | 1.7 | 2.6 | 0.00 | 0.00 | 0.00 | 79 | 1014.7 |
| 20260503024917 | 40 | 215 | 1.7 | 2.6 | 0.00 | 0.00 | 0.00 | 79 | 1014.7 |
| 20260503024417 | 40 | 217 | 0.9 | 1.7 | 0.00 | 0.00 | 0.00 | 79 | 1014.7 |
| 20260503023916 | 40 | 215 | 1.7 | 2.6 | 0.00 | 0.00 | 0.00 | 78 | 1014.7 |
| 20260503023417 | 40 | 228 | 2.6 | 2.6 | 0.00 | 0.00 | 0.00 | 78 | 1014.8 |
| 20260503022918 | 40 | 193 | 0.9 | 2.6 | 0.00 | 0.00 | 0.00 | 78 | 1014.8 |
| 20260503022416 | 40 | 193 | 0.9 | 1.7 | 0.00 | 0.00 | 0.00 | 78 | 1014.8 |
| 20260503021917 | 41 | 193 | 0.9 | 0.9 | 0.00 | 0.00 | 0.00 | 78 | 1014.8 |
| 20260503021416 | 41 | 180 | 1.7 | 1.7 | 0.00 | 0.00 | 0.00 | 77 | 1014.8 |
| 20260503020917 | 41 | 193 | 0.9 | 1.7 | 0.00 | 0.00 | 0.00 | 77 | 1014.8 |
| 20260503020417 | 41 | 193 | 0.9 | 0.9 | 0.00 | 0.00 | 0.00 | 76 | 1014.8 |
| 20260503015918 | 41 | 193 | 0.9 | 2.6 | 0.00 | 0.00 | 0.00 | 76 | 1014.9 |
| 20260503014916 | 41 | 191 | 1.7 | 2.6 | 0.00 | 0.00 | 0.00 | 75 | 1014.9 |
| 20260503014418 | 41 | 197 | 1.7 | 2.6 | 0.00 | 0.00 | 0.00 | 75 | 1014.8 |
| 20260503013917 | 41 | 207 | 1.7 | 2.6 | 0.00 | 0.00 | 0.00 | 75 | 1014.9 |
| 20260503013418 | 41 | 213 | 1.7 | 2.6 | 0.00 | 0.00 | 0.00 | 75 | 1014.9 |
| 20260503012917 | 41 | 228 | 0.9 | 2.6 | 0.00 | 0.00 | 0.00 | 74 | 1015.0 |
| 20260503012417 | 41 | 246 | 1.7 | 2.6 | 0.00 | 0.00 | 0.00 | 74 | 1014.9 |
| 20260503011918 | 41 | 255 | 1.7 | 2.6 | 0.00 | 0.00 | 0.00 | 74 | 1014.9 |
| 20260503011417 | 41 | 244 | 1.7 | 1.7 | 0.00 | 0.00 | 0.00 | 73 | 1014.9 |
| 20260503010918 | 41 | 255 | 1.7 | 2.6 | 0.00 | 0.00 | 0.00 | 73 | 1014.8 |
| 20260503010417 | 41 | 311 | 1.7 | 2.6 | 0.00 | 0.00 | 0.00 | 73 | 1014.8 |
| 20260503005917 | 41 | 311 | 0.9 | 0.9 | 0.00 | 0.00 | 0.00 | 73 | 1014.8 |
| 20260503005417 | 41 | 311 | 0.9 | 1.7 | 0.00 | 0.00 | 0.00 | 74 | 1014.8 |
| 20260503004916 | 42 | 298 | 5.2 | 7.0 | 0.00 | 0.00 | 0.00 | 74 | 1014.9 |
| 20260503004417 | 42 | 299 | 4.3 | 5.2 | 0.00 | 0.00 | 0.00 | 75 | 1014.9 |
| 20260503003916 | 42 | 281 | 2.6 | 5.2 | 0.00 | 0.00 | 0.00 | 75 | 1014.8 |
| 20260503003417 | 42 | 291 | 4.3 | 7.0 | 0.00 | 0.00 | 0.00 | 75 | 1014.8 |
| 20260503002917 | 42 | 276 | 2.6 | 4.3 | 0.00 | 0.00 | 0.00 | 75 | 1014.8 |
| 20260503002417 | 42 | 296 | 2.6 | 2.6 | 0.00 | 0.00 | 0.00 | 74 | 1014.7 |